Weather History for Barking Sands, HI

Change the Weather History Date:

Friday, December 28, 2012

  Actual Average Record
Temperature  
Mean Temperature 72 °F -  
Max Temperature 81 °F 80 °F 85 °F (1965)
Min Temperature 64 °F 63 °F 57 °F (1970)
Cooling Degree Days 8    
Growing Degree Days 22 (Base 50)    
Moisture  
Dew Point 69 °F    
Average Humidity 87    
Maximum Humidity 100    
Minimum Humidity 69    
Precipitation  
Precipitation 0.00 in - - ()
Sea Level Pressure  
Sea Level Pressure 29.96 in    
Wind  
Wind Speed 4 mph (SE)    
Max Wind Speed 9 mph    
Max Gust Speed -    
Visibility 10 miles    
Events      
Averages and records for this station are not official NWS values.
T = Trace of Precipitation, MM = Missing Value Source: NWS Daily Summary

Daily Weather History Graph

Daily Weather History Graph

Search for Another Location

Airport:

Trip Planner

Search our weather history database for the weather conditions in past years. The results will help you decide how hot, cold, wet, or windy it might be!

Date:

Astronomy

Dec. 28, 2012 Rise Set
Actual Time 7:17 AM HST 6:05 PM HST
Civil Twilight 6:52 AM HST 6:29 PM HST
Nautical Twilight 6:24 AM HST 6:57 PM HST
Astronomical Twilight 5:57 AM HST 7:24 PM HST
Moon 6:44 PM HST (12/28) 7:25 AM HST (12/28)
Length of Visible Light 11h 36m
Length of Day
10h 48m
Full, 100% of the Moon is Illuminated
Dec 28
Full
Jan 4
Last Quarter
Jan 11
New
Jan 18
First Quarter
Jan 26
Full

Hourly Weather History & Observations

Time (HST) Temp. Heat Index Dew Point Humidity Pressure Visibility Wind Dir Wind Speed Gust Speed Precip Events Conditions
12:56 AM 68.0 °F - 64.9 °F 90% 29.97 in 10.0 mi ESE 4.6 mph - N/A   Clear
1:56 AM 68.0 °F - 64.0 °F 87% 29.96 in 10.0 mi ESE 3.5 mph - N/A   Clear
2:56 AM 66.0 °F - 60.1 °F 81% 29.96 in 10.0 mi Calm Calm - N/A   Clear
3:56 AM 64.9 °F - 62.1 °F 90% 29.95 in 10.0 mi Calm Calm - N/A   Clear
4:56 AM 66.9 °F - 66.9 °F 100% 29.94 in 10.0 mi ESE 3.5 mph - N/A   Clear
5:56 AM 68.0 °F - 66.0 °F 93% 29.94 in 10.0 mi East 3.5 mph - N/A   Clear
6:56 AM 68.0 °F - 64.0 °F 87% 29.95 in 10.0 mi Calm Calm - N/A   Clear
7:56 AM 69.1 °F - 64.9 °F 87% 29.97 in 10.0 mi ESE 4.6 mph - N/A   Clear
8:56 AM 75.0 °F - 68.0 °F 79% 29.99 in 10.0 mi SE 4.6 mph - N/A   Scattered Clouds
9:56 AM 78.1 °F - 69.1 °F 74% 30.01 in 10.0 mi South 4.6 mph - N/A   Partly Cloudy
10:56 AM 79.0 °F - 69.1 °F 72% 30.01 in 10.0 mi SSW 8.1 mph - N/A   Partly Cloudy
11:56 AM 80.1 °F 82.9 °F 69.1 °F 69% 29.99 in 10.0 mi SSW 3.5 mph - N/A   Partly Cloudy
12:56 PM 81.0 °F 84.4 °F 70.0 °F 69% 29.95 in 10.0 mi SSW 9.2 mph - N/A   Partly Cloudy
1:56 PM 79.0 °F - 72.0 °F 79% 29.92 in 10.0 mi South 6.9 mph - N/A   Clear
2:56 PM 79.0 °F - 75.9 °F 90% 29.90 in 10.0 mi SSE 8.1 mph - N/A   Clear
3:56 PM 79.0 °F - 73.9 °F 84% 29.90 in 10.0 mi SSE 5.8 mph - N/A   Clear
4:56 PM 78.1 °F - 75.9 °F 93% 29.92 in 10.0 mi SE 5.8 mph - N/A   Clear
5:56 PM 75.9 °F - 75.9 °F 100% 29.93 in 10.0 mi South 4.6 mph - N/A   Clear
6:56 PM 73.9 °F - 73.9 °F 100% 29.94 in 10.0 mi SE 3.5 mph - N/A   Clear
7:56 PM 73.0 °F - 72.0 °F 96% 29.96 in 10.0 mi Calm Calm - N/A   Mostly Cloudy
8:56 PM 72.0 °F - 68.0 °F 87% 29.99 in 10.0 mi East 3.5 mph - N/A   Scattered Clouds
9:56 PM 71.1 °F - 66.9 °F 87% 29.99 in 10.0 mi East 4.6 mph - N/A   Partly Cloudy
10:56 PM 71.1 °F - 69.1 °F 93% 29.99 in 10.0 mi East 4.6 mph - N/A   Clear
11:56 PM 70.0 °F - 66.9 °F 90% 30.00 in 10.0 mi ESE 4.6 mph - N/A   Mostly Cloudy